COSMOS 793

Satellite information

Favourite Embed

Satellite Type and Status

PAYLOADIN ORBIT

Key statistics

Satellite COSMOS 793 at a glance.

Uptime

18174

Days in orbit

Revolutions

≈ 12.5

Per day

Orbit

LEO

Low Earth Orbit

Inclination

74.1

Latest

Satellite identification and parameters

Extended collection of information and parameters for COSMOS 793.

Object identification

Identified? True

Debris? False

Object name: COSMOS 793

International designator: 1976-008C

Object number (NORAD): 8609

Object ID (CCSDS): 8609

Country: COMMONWEALTH OF INDEPENDENT STATES (CIS)

Current information (Y/N): Y

RCS size: MEDIUM

Orbital parameters

Period: 114.957 minutes

Inclination: 74.0553 deg

SMA: 7831.601 km

Apoapsis: 1490.031 km

Periapsis: 1416.902 km

RAAN: 188.8297 deg

Eccentricy: 0.00466885

Argument of periapsis: 347.6974 deg

Mean anomaly: 41.1755 deg

Mean motion: 12.52641798 rev/day

Mean motion (dot): -0.00000018 rev/day2

B* drag term: -0.000013249098 1/REarth

Two-line elements (TLE)

Creation date: Oct. 31, 2025, 3 a.m.

Reference frame: TEME

Reference center: EARTH

Epoch: Oct. 30, 2025, 4:22 p.m. UTC

TLE line 0: 0 COSMOS 793

TLE line 1: 1 08609U 76008C 25303.68196314 -.00000018 00000-0 -13249-4 0 9999

TLE line 2: 2 08609 74.0553 188.8297 0046688 347.6974 41.1755 12.52641798275208

Live tracking on map

Real-time ground track for satellite COSMOS 793.

In-orbit conjunctions

There are no conjunctions computed for COSMOS 793, at the moment. Check back to stay up to date, as we update our databases every day.

Go to all conjunctions

Associated space launch

Military communications satellites

COSMOS 793 was lifted into orbit during the mission ‘Kosmos-3M | Strela-1M 105-112’, on board a Kosmos-3M space rocket.

The launch took place on Jan. 28, 1976, 10:39 a.m. from 132/1 (132L).

For more information about the launch, click the button.

Launch to space Kosmos-3M | Strela-1M 105-112
Kosmos-3M | Strela-1M 105-112

Agency: N/A

Status: Launch Successful

Launch date: Jan. 28, 1976, 10:39 a.m. UTC

Rocket: Kosmos-3M

Launch pad: 132/1 (132L)

Location: Plesetsk Cosmodrome, Russian Federation

...

Latest news about this satellite

There are no fresh news available about this satellite. Check back as we update our databases every day.


Newsletter sign-up

Weekly statistics, charts and insights to help you stay on top of the space industry.